Weather in Rudnya

Russia / Smolensk Oblast     54°56′49″N   31°05′36″E
temp.,
°C
wind,
m/s
gust,
m/s
humid.,
%
clouds,
%
prec.,
mm/h
press.,
hPa
HPBL,
m
21 april, wed
wed2100:00+4e369193 0.1 1012448
03:00+2ne238664 0.1 101180
06:00+1n239152 0.0 100953
09:00+5wnw237326 0.0 1009542
12:00+8w446698 0.1 10081269
15:00+8wsw457147 0.3 1008948
18:00+8wsw356840 0.3 1008857
21:00+5ssw33795 0.3 100942
22 april, thu
thu2200:00+6ssw4117786 0.0 1009282
03:00+4ssw4118890 0.1 1009208
06:00+3ssw379510 0.1 1010135
09:00+9ssw467676 0.1 1010368
12:00+13ssw67555 0.6 10101541
15:00+13ssw686169 2.1 10091526
18:00+13sw610665 1.4 10081186
21:00+8sw358286 1.5 101073
23 april, fri
fri2300:00+7sw2494100 1.2 1010175
03:00+5sw3976100 2.1 1011465
06:00+4sw4982100 0.0 1012508
09:00+6sw5769100 0.0 1013819
12:00+7ssw5759100 0.0 10131368
15:00+8sw6750100 0.1 10131774
18:00+8sw5657100 0.1 10121327
21:00+5sw3373100 0.3 101251
24 april, sat
sat2400:00+3w337995 0.0 101169
03:00+1w35885 0.0 101099
06:000w389575 0.3 1010229
09:00+2w5684100 0.3 1010630
12:00+4w5672100 0.3 10101166
15:00+5w566289 0.5 10101387
18:00+4w7877100 0.4 1010957
21:00+2w4985100 0.4 1011536
25 april, sun
sun2500:00+1wsw4991100 0.0 1011355
03:000wsw499344 0.0 1010285
06:00−2wsw389717 0.0 1010221
09:00+2sw46695 0.0 1010902
12:00+5ssw5547100 0.1 10091932
15:00+5sw456091 1.3 10081279
18:00+5w455921 0.7 10081213
21:00+1wsw37885 0.9 1009143